Tracking 30990 objects as of 8-Jul-2025
HD Live streaming from Space Station
objects crossing your sky now

TITAN 34B R/B

Track TITAN 34B R/B now!


NORAD ID: 17507
Int'l Code: 1987-015B
Perigee: 1,397.3 km
Apogee: 38,213.1 km
Inclination: 63.0 °
Period: 702.5 minutes
Semi major axis: 26176 km
RCS: Unknown
Launch date: February 12, 1987
Source: United States (US)
Launch site: AIR FORCE WESTERN TEST RANGE (AFWTR)

Note: This is a ROCKET BODY
Your satellite tracking list
Your tracking list is empty




NASA's NSSDC Master Catalog

Two Line Element Set (TLE):
1 17507U 87015B   25188.59089106  .00000978  00000-0  00000+0 0  9996
2 17507  63.0446 157.4266 7032292 265.5022  18.4167  2.04994398 45456
Source of the keplerian elements: AFSPC